Flag for France Weather past 2 weeks in Montpellier, France

Now
70 °F

Sunny.


Feels Like: 70 °F
Forecast: 54 / 73 °F
Wind: 10 mph from Southwest

Location: Montpellier Airport


UV Index: 5 (Moderate)

Visibility: 10 mi


Pressure: 30.01 "Hg

Humidity: 50%

Dew point: 50 °F

Location of MontpellierLocation

Historic Weather in Montpellier

°F

Montpellier temperature yesterday

Maximum temperature yesterday: 64 °F (at 4:00 PM)
Minimum temperature yesterday: 52 °F (at 1:00 AM)
Average temperature yesterday: 57 °F

Past Weeks' High & Low Weather Summary

 TemperatureHumidityPressure
High79 °F (Apr 15, 3:30 PM)100% (Apr 11, 3:00 AM)30.24 "Hg (Apr 11, 3:00 AM)
Low45 °F (Apr 9, 7:30 AM)10% (Apr 15, 4:30 PM)29.65 "Hg (Apr 19, 4:30 PM)
Average60 °F61%29.95 "Hg
* Reported Apr 8 3:00 PM — Apr 23 3:30 PM, Montpellier, Weather by CustomWeather, © 2014

Note: Actual official high and low records may vary slightly from our data, if they occured in-between our weather recording intervals... More about our weather records

Advertising

Historic Weather Conditions — Data for Previous 24 hours

 ConditionsComfort  
Time TempWeatherWind HumidityBarometerVisibility
3:30 PM
Apr 23
70 °FSunny.12 mph57%30.04 "Hg10 mi
3:00 PM68 °FSunny.13 mph56%30.04 "Hg10 mi
2:30 PM70 °FSunny.10 mph53%30.04 "Hg10 mi
2:00 PM68 °FSunny.10 mph53%30.04 "Hg10 mi
1:30 PM68 °FSunny.10 mph53%30.04 "Hg10 mi
1:00 PM68 °FSunny.10 mph60%30.07 "Hg10 mi
12:30 PM68 °FSunny.9 mph56%30.07 "Hg10 mi
12:00 PM68 °FPassing clouds.7 mph60%30.07 "HgN/A
11:30 AM68 °FPassing clouds.7 mph56%30.07 "HgN/A
11:00 AM66 °FSunny.2 mph60%30.07 "Hg10 mi
10:30 AM64 °FSunny.3 mph64%30.07 "Hg10 mi
10:00 AM63 °FPassing clouds.5 mph68%30.07 "HgN/A
9:30 AM59 °FPassing clouds.5 mph77%30.07 "HgN/A
9:00 AM57 °FSunny.2 mph82%30.04 "Hg10 mi
8:30 AM57 °FPassing clouds.3 mph82%30.04 "HgN/A
8:00 AM55 °FSunny.3 mph88%30.04 "Hg10 mi
7:30 AM54 °FClear.2 mph94%30.04 "Hg10 mi
7:00 AM52 °FClear.5 mph94%30.04 "Hg5 mi
6:30 AM54 °FClear.5 mph94%30.04 "Hg10 mi
6:00 AM55 °FClear.3 mph94%30.04 "Hg10 mi
5:30 AM55 °FFog.6 mph94%30.04 "Hg3 mi
5:00 AM55 °FFog.5 mph94%30.04 "Hg2 mi
4:30 AM55 °FFog.3 mph94%30.04 "Hg2 mi
4:00 AM55 °FFog.2 mph94%30.04 "Hg3 mi
3:30 AM57 °FFog.3 mph88%30.04 "Hg3 mi
3:00 AM57 °FFog.6 mph94%30.04 "Hg3 mi
2:30 AM57 °FLow clouds.5 mph94%30.04 "Hg5 mi
2:00 AM57 °FClear.3 mph94%30.04 "Hg6 mi
1:30 AM57 °FClear.3 mph94%30.04 "Hg6 mi
1:00 AM57 °FPartly cloudy.3 mph94%30.04 "HgN/A
12:30 AM57 °FClear.2 mph94%30.04 "Hg10 mi
12:00 AM59 °FClear.3 mph88%30.04 "Hg10 mi
11:30 PM
Apr 22
57 °FClear.5 mph94%30.01 "Hg10 mi
11:00 PM57 °FClear.5 mph88%30.01 "Hg10 mi
10:30 PM59 °FClear.6 mph88%30.01 "Hg10 mi
10:00 PM59 °FClear.5 mph88%30.01 "Hg10 mi
9:30 PM59 °FSunny.5 mph88%29.98 "Hg10 mi
9:00 PM59 °FPartly sunny.6 mph88%29.98 "HgN/A
8:30 PM59 °FPartly sunny.7 mph88%29.98 "HgN/A
8:00 PM59 °FBroken clouds.7 mph88%29.95 "HgN/A
7:30 PM59 °FPartly sunny.7 mph88%29.95 "HgN/A
7:00 PM59 °FSprinkles. Broken clouds.7 mph82%29.95 "Hg6 mi
6:30 PM59 °FSprinkles. Broken clouds.9 mph82%29.95 "Hg4 mi
6:00 PM63 °FScattered clouds.9 mph73%29.92 "HgN/A
5:30 PM63 °FScattered clouds.7 mph73%29.92 "HgN/A
5:00 PM64 °FScattered clouds.6 mph68%29.92 "HgN/A
4:30 PM64 °FPartly sunny.7 mph68%29.92 "HgN/A
4:00 PM64 °FPartly sunny.6 mph68%29.92 "HgN/A
Weather by CustomWeather, © 2014

See weather overview